[[{"header":{"parameterUnit":"m.s-1","parameterCategory":1,"la1":30.2991,"la2":30.254,"lo1":-89.0895,"lo2":-89.0444,"dy":0.0017,"dx":0.0017,"nx":28,"ny":28,"refTime":"2023-08-26T21:00:00:Z","depth":0,"parameterNumber":2,"parameterNumberName":"U-component_of_WINDS"},"data":[0,0,0,0,0,0,0,0,0,0,0,0,0,0,0,0,0,0,0,0,0,0,0,0,0,0,0,0,0,0,0,0,0,0,0,0,0,0,0,0,0,0,0,0,0,0,0,0,0,0,0,0,0,0,0,0,0,0,1.0448,1.0449,0,1.0512,1.0513,1.0513,1.0495,1.0494,1.0493,1.0491,1.0551,1.0554,1.0557,0,0,0,0,0,0,0,0,0,0,0,0,0,1.0307,1.0309,1.0448,1.0449,1.045,1.0512,1.0513,1.0513,1.0495,1.0494,1.0492,1.0491,1.055,1.0554,1.0557,0,0,0,0,0,0,0,0,0,0,0,0,0,1.0369,1.031,1.0448,1.0449,1.0449,1.0512,1.0513,1.0514,1.0496,1.0494,1.0492,1.049,1.0549,1.0553,1.0558,1.0622,0,0,1.057,1.0572,0,0,0,0,0,0,0,0,1.0365,1.0374,1.0448,1.0449,1.045,1.0494,1.0485,1.055,1.0496,1.0478,1.0491,1.0489,1.0533,1.0539,1.0555,1.0625,1.0627,1.0571,1.0573,1.0575,1.0576,0,0,0,0,0,0,0,1.0361,1.0371,1.0473,1.0449,1.045,1.0444,1.0451,1.0497,1.0515,1.0479,1.0478,1.0486,1.0534,1.0551,1.0556,1.0628,1.0571,1.0574,1.0577,1.0579,1.0754,1.0756,0,0,0,0,0,0,1.0357,1.0368,1.0471,1.0475,1.0402,1.0448,1.0456,1.0481,1.0515,1.0518,1.0488,1.0485,1.0545,1.0551,1.0558,1.0635,1.0575,1.0579,1.0581,1.0751,1.0754,1.0756,0,0,0,0,0,0,1.0354,1.0366,1.0469,1.0421,1.0434,1.0453,1.0482,1.0484,1.0501,1.0522,1.0524,1.0502,1.0543,1.0552,1.0606,1.0637,1.0581,1.0585,1.0749,1.0752,1.0755,1.0791,0,0,0,0,0,0,1.035,1.0365,1.0391,1.0422,1.0437,1.0518,1.0484,1.0486,1.0509,1.0506,1.0536,1.0539,1.0543,1.06,1.0611,1.0642,1.0588,1.0746,1.075,1.0754,1.0787,1.0795,1.0801,0,0,0,0,0,1.0345,1.0397,1.0393,1.0405,1.0469,1.0519,1.0528,1.0532,1.0511,1.0537,1.055,1.0538,1.0632,1.0606,1.0617,1.065,1.0744,1.0749,1.0754,1.0783,1.0793,1.0801,0,0,0,0,0,0,1.0368,1.0402,1.0396,1.0461,1.0488,1.0516,1.0548,1.0542,1.0574,1.057,1.0572,1.0579,1.0635,1.0648,1.0618,1.0714,1.0685,1.0692,1.0704,1.0713,1.072,1.0715,1.0591,0,0,0,0,0,1.0381,1.042,1.0447,1.0501,1.0515,1.053,1.0551,1.0553,1.058,1.0591,1.0608,1.0633,1.0668,1.0691,1.0725,1.0789,1.0794,1.0817,1.0824,1.083,1.0836,1.087,1.088,1.0772,1.0772,1.0772,0,0,1.0407,1.043,1.0454,1.0506,1.0527,1.0566,1.0539,1.0582,1.061,1.0596,1.0649,1.0663,1.0691,1.075,1.0777,1.0763,1.0867,1.0836,1.0841,1.0844,1.0876,1.0886,1.0895,1.0775,1.0775,1.0774,0,0,1.0474,1.0497,1.0544,1.0566,1.0599,1.0609,1.062,1.065,1.0659,1.0712,1.0703,1.0736,1.0797,1.0818,1.0836,1.0912,1.0902,1.0923,1.0961,1.0994,1.1002,1.101,1.1036,1.1046,1.0929,1.0929,1.0929,0,1.0502,1.0563,1.0569,1.0613,1.0636,1.0627,1.0674,1.0695,1.0736,1.0751,1.0735,1.0811,1.083,1.0894,1.0912,1.0928,1.094,1.0919,1.1001,1.1009,1.1016,1.1041,1.1051,1.0932,1.0931,1.0931,1.0931,0,1.0595,1.0637,1.0672,1.0714,1.074,1.0786,1.0797,1.0823,1.0822,1.0833,1.0886,1.0909,1.0946,1.0962,1.0961,1.1025,1.1015,1.1,1.0971,1.1028,1.1052,1.1061,1.0935,1.0934,1.0933,1.0933,0,0,1.0678,1.0724,1.0737,1.0756,1.0792,1.0823,1.0868,1.0907,1.0928,1.0957,1.0993,1.1046,1.1032,1.1053,1.1054,1.1083,1.1141,1.1064,1.1065,1.1077,1.1213,1.1223,1.1234,1.1135,1.1137,1.1139,1.121,0,1.0748,1.0829,1.0836,1.0907,1.0946,1.0938,1.0977,1.1002,1.1014,1.1046,1.1058,1.1095,1.1074,1.1087,1.1116,1.1128,1.1168,1.1123,1.1167,1.1169,1.116,1.1247,1.1258,1.1324,1.1219,1.1221,1.1222,0,1.0841,1.0875,1.0951,1.0982,1.0998,1.1033,1.1069,1.1101,1.1129,1.1135,1.1159,1.1156,1.12,1.117,1.123,1.1199,1.1217,1.1226,1.1229,1.1232,1.1198,1.1251,1.1345,1.1355,1.1237,1.1236,1.1234,0,1.0893,1.0957,1.1011,1.1027,1.1065,1.1089,1.1106,1.1132,1.1155,1.1186,1.1201,1.1236,1.1255,1.1281,1.1287,1.1265,1.1347,1.1317,1.1351,1.1351,1.1368,1.1367,1.1465,1.1382,1.1382,1.1381,1.1381,0,1.097,1.1016,1.1035,1.1068,1.1119,1.1126,1.1177,1.1191,1.1215,1.1249,1.1244,1.1276,1.1283,1.1316,1.1321,1.1369,1.1378,1.1382,1.1383,1.1382,1.1382,1.1394,1.1389,1.1384,1.1383,1.1383,1.1382,0,1.1036,1.105,1.1108,1.114,1.1149,1.1185,1.1211,1.1242,1.1253,1.1297,1.1307,1.1324,1.1362,1.1371,1.1416,1.142,1.1476,1.1473,1.1468,1.1467,1.15,1.1497,1.1609,1.1624,1.1532,1.1533,1.1533,0,1.1083,1.1119,1.1156,1.1179,1.1198,1.1236,1.126,1.1268,1.1293,1.1328,1.1354,1.1392,1.1423,1.1484,1.1499,1.1534,1.153,1.1567,1.1535,1.1533,1.1529,1.1527,1.153,1.1573,1.1574,1.1575,1.1575,0,1.1166,1.1172,1.1208,1.1247,1.1276,1.1306,1.1335,1.1354,1.1366,1.1394,1.1434,1.1459,1.1506,1.1543,1.1578,1.1592,1.1585,1.1586,1.1595,1.1594,1.1589,1.1591,1.1483,1.1583,1.1582,1.1581,1.1581,1.1581,1.1224,1.1256,1.1286,1.1326,1.135,1.1377,1.1407,1.1423,1.1458,1.1498,1.15,1.1544,1.157,1.1617,1.1633,1.1666,1.1654,1.1669,1.1672,1.1675,1.1677,1.1585,1.1673,1.1672,1.1672,1.1672,1.1672,0,1.1306,1.1326,1.1363,1.1404,1.1436,1.1429,1.1461,1.1486,1.1526,1.1552,1.1583,1.1629,1.1665,1.1684,1.1719,1.1742,1.174,1.1751,1.1749,1.1752,1.1686,1.1674,1.1752,1.1752,1.1752,1.1752,1.1752,1.1752,1.1352,1.1405,1.1415,1.1479,1.1498,1.1542,1.156,1.1585,1.1606,1.1658,1.1689,1.1702,1.1725,1.1762,1.1795,1.1799,1.1811,1.1824,1.1827,1.1765,1.1757,1.1749,1.1737,1.1827,1.1827,1.1889,1.189,1.189]},{"header":{"parameterUnit":"m.s-1","parameterCategory":1,"la1":30.2991,"la2":30.254,"lo1":-89.0895,"lo2":-89.0444,"dy":0.0017,"dx":0.0017,"nx":28,"ny":28,"refTime":"2023-08-26T21:00:00:Z","depth":0,"parameterNumber":3,"parameterNumberName":"V-component_of_WINDS"},"data":[0,0,0,0,0,0,0,0,0,0,0,0,0,0,0,0,0,0,0,0,0,0,0,0,0,0,0,0,0,0,0,0,0,0,0,0,0,0,0,0,0,0,0,0,0,0,0,0,0,0,0,0,0,0,0,0,0,0,1.1307,1.1307,0,1.1312,1.1312,1.1312,1.1386,1.1388,1.139,1.1391,1.1395,1.1393,1.1391,0,0,0,0,0,0,0,0,0,0,0,0,0,1.136,1.1359,1.1307,1.1307,1.1307,1.1312,1.1312,1.1312,1.1386,1.1388,1.139,1.1392,1.1395,1.1393,1.1391,0,0,0,0,0,0,0,0,0,0,0,0,0,1.1348,1.1358,1.1307,1.1345,1.1348,1.1312,1.1312,1.1312,1.1385,1.1388,1.1391,1.1393,1.1396,1.1393,1.1391,1.1319,0,0,1.1383,1.1382,0,0,0,0,0,0,0,0,1.1349,1.1346,1.1339,1.1342,1.1346,1.1351,1.1332,1.1314,1.1384,1.1371,1.1392,1.1395,1.1378,1.1377,1.1372,1.1319,1.1319,1.1383,1.1382,1.138,1.138,0,0,0,0,0,0,0,1.135,1.1346,1.1309,1.1339,1.1343,1.1361,1.1362,1.1329,1.1358,1.1372,1.1378,1.1377,1.138,1.1374,1.1372,1.1319,1.1383,1.1381,1.1379,1.1378,1.1205,1.1202,0,0,0,0,0,0,1.1345,1.1347,1.1309,1.1309,1.1354,1.1357,1.1359,1.1347,1.1359,1.1364,1.1375,1.1381,1.1377,1.1375,1.1373,1.1287,1.138,1.1378,1.1377,1.1208,1.1204,1.1201,0,0,0,0,0,0,1.1346,1.1341,1.1309,1.1329,1.1327,1.1353,1.1339,1.1345,1.1339,1.1361,1.1366,1.1363,1.1379,1.1376,1.1331,1.1288,1.1377,1.1375,1.1212,1.1207,1.1203,1.1115,0,0,0,0,0,0,1.1348,1.1341,1.1314,1.1328,1.1325,1.1267,1.1336,1.1343,1.1335,1.1342,1.1351,1.1355,1.1381,1.1334,1.1329,1.1286,1.1373,1.1216,1.121,1.1204,1.1122,1.1108,1.1096,0,0,0,0,0,1.1349,1.129,1.1313,1.1308,1.1292,1.1265,1.1263,1.1294,1.1331,1.1303,1.1318,1.1355,1.1294,1.1329,1.1323,1.1279,1.1219,1.1211,1.1205,1.1128,1.1111,1.1096,0,0,0,0,0,0,1.127,1.1292,1.1318,1.1262,1.1261,1.1277,1.1244,1.1275,1.1264,1.1271,1.131,1.1311,1.126,1.1266,1.1304,1.1209,1.1263,1.1254,1.1206,1.119,1.1178,1.1176,1.1371,0,0,0,0,0,1.1246,1.1222,1.1243,1.1191,1.119,1.1217,1.1206,1.123,1.123,1.123,1.1241,1.124,1.122,1.1206,1.119,1.1124,1.1126,1.1091,1.1078,1.1067,1.1058,1.1022,1.1005,1.1178,1.1178,1.1178,0,0,1.1196,1.1205,1.1188,1.1176,1.1178,1.1151,1.1216,1.1186,1.1166,1.1226,1.1183,1.1191,1.1192,1.1135,1.1111,1.1139,1.1012,1.1058,1.105,1.1047,1.1013,1.0996,1.0982,1.1174,1.1174,1.1175,0,0,1.1091,1.1096,1.1052,1.1053,1.1056,1.1074,1.1064,1.1076,1.1083,1.1041,1.1085,1.1062,1.1028,1.1026,1.1021,1.0914,1.0947,1.0908,1.0839,1.0803,1.0789,1.0777,1.0736,1.0721,1.09,1.09,1.0899,0,1.1028,1.099,1.1026,1.0992,1.0984,1.1038,1.0993,1.0992,1.0988,1.0981,1.1013,1.097,1.0975,1.0918,1.0891,1.0886,1.0874,1.0905,1.0788,1.0777,1.0766,1.0727,1.0712,1.0894,1.0895,1.0896,1.0896,0,1.0911,1.0884,1.0848,1.0843,1.0832,1.0792,1.0822,1.0806,1.0831,1.0846,1.0801,1.0809,1.0794,1.0783,1.0807,1.0728,1.0745,1.0782,1.0836,1.0744,1.0708,1.0694,1.0887,1.0889,1.0891,1.0892,0,0,1.0754,1.0769,1.0755,1.0752,1.0759,1.0739,1.0702,1.0687,1.0671,1.0668,1.0635,1.0606,1.0639,1.0633,1.0658,1.0627,1.0538,1.0667,1.0668,1.064,1.0448,1.0417,1.04,1.0561,1.0559,1.0557,1.0447,0,1.0649,1.0586,1.0617,1.055,1.0524,1.0575,1.0542,1.0542,1.0555,1.0534,1.0549,1.0526,1.0574,1.057,1.0541,1.0555,1.0499,1.0564,1.053,1.0528,1.0524,1.0382,1.035,1.0245,1.0433,1.0431,1.0429,0,1.0519,1.0508,1.0438,1.0448,1.0438,1.0408,1.0396,1.0377,1.0377,1.0389,1.0382,1.0414,1.0377,1.0433,1.0381,1.0424,1.0413,1.0417,1.0414,1.0409,1.047,1.037,1.0213,1.0196,1.0408,1.041,1.0411,0,1.0407,1.0376,1.0329,1.0326,1.0337,1.0314,1.0318,1.0322,1.031,1.03,1.0293,1.0279,1.027,1.0258,1.0284,1.0324,1.0228,1.0287,1.0234,1.0233,1.0209,1.021,1.0045,1.0207,1.0208,1.0208,1.0208,0,1.0285,1.0239,1.0279,1.025,1.0199,1.0236,1.0185,1.0194,1.0197,1.0169,1.0214,1.0187,1.0226,1.0203,1.0224,1.0176,1.0173,1.018,1.0185,1.0174,1.0172,1.0164,1.0171,1.0204,1.0205,1.0205,1.0206,0,1.015,1.0175,1.0127,1.0142,1.0144,1.0106,1.0118,1.0091,1.0108,1.0072,1.0066,1.0092,1.0067,1.0093,1.007,1.0084,1.0019,1.0037,1.0018,1.0022,0.9966,0.997,0.9788,0.9765,0.9945,0.9943,0.9941,0,1.0069,1.0034,1.0045,1.003,1.0031,1.0006,0.9994,1.0029,1.0015,1.0013,0.9985,0.9965,0.9949,0.9906,0.9922,0.9904,0.992,0.9858,0.9918,0.9906,0.9915,0.9915,0.9911,0.9844,0.9842,0.984,0.9839,0,0.9921,0.9935,0.9917,0.9902,0.9887,0.9877,0.9871,0.9856,0.9892,0.9874,0.9848,0.9836,0.9813,0.979,0.9777,0.978,0.9814,0.9821,0.9807,0.9793,0.9782,0.9784,0.9981,0.9824,0.9825,0.9826,0.9827,0.9828,0.9808,0.9779,0.9781,0.9759,0.9758,0.9751,0.9725,0.9738,0.9718,0.9701,0.9724,0.9691,0.9692,0.9678,0.9677,0.9652,0.9678,0.9659,0.9653,0.9647,0.9637,0.9789,0.965,0.9651,0.9651,0.9651,0.9652,0,0.966,0.9664,0.9643,0.9632,0.9614,0.965,0.9644,0.9626,0.9597,0.9595,0.9579,0.9549,0.9527,0.9542,0.9523,0.95,0.9515,0.9493,0.9494,0.9493,0.9617,0.9629,0.9481,0.9481,0.9481,0.9481,0.9481,0.9481,0.958,0.9532,0.9546,0.9497,0.9502,0.947,0.9464,0.9457,0.9455,0.9419,0.9401,0.9411,0.9415,0.9397,0.9378,0.9383,0.9372,0.9344,0.9354,0.9468,0.9485,0.9501,0.9512,0.9342,0.9342,0.9232,0.9231,0.923]}]]